Location: Ammerl�gen
(47.2167°N, 9.6000°E)
Time: 09:25:53
(UTC+00:00)

Cosmos 2227 - Pass Details

Date: 21 April 2021
Orbit: 834 x 861 km, 71.0° (Epoch: 07 May)

Event Time Altitude Azimuth Distance (km) Brightness Sun altitude
Exits shadow 21:54:23 65° 74° (ENE) 946 4.3 -27.6°
Drops below altitude 10° 21:59:32 10° 31° (NNE) 2,505 7.1 -27.9°
Sets 22:02:00 0° 29° (NNE) 3,443 7.9 -28.1°
